Location: Dilsberg
(49.3983°N, 8.8354°E)
Time: 06:36:09
(UTC+00:00)

SL-8 Rocket - Pass Details

Date: 19 May 2025
Orbit: 955 x 990 km, 82.9° (Epoch: 14 June)

Event Time Altitude Azimuth Distance (km) Brightness Sun altitude
Rises 21:16:09 0° 347° (NNW) 3,655 8.5 -15.3°
Reaches altitude 10° 21:18:41 10° 344° (NNW) 2,701 7.6 -15.5°
Maximum altitude 21:24:42 57° 268° (W) 1,123 4.5 -16.0°
Enters shadow 21:29:42 15° 194° (SSW) 2,333 5.6 -16.3°
